Terminal Aerodrome Forecast
Issued by NWS

Home | Current Version | Previous Version | Text Only | Print | Product List | Glossary On
Versions: 1 2 3 4 5 6 7 8 9 10 11 12 13 14 15 16 17 18 19 20 21 22 23
000
FTUS41 KCAR 231400 AAB
TAFBHB
TAF AMD
KBHB 231420Z 2314/2412 05018G35KT 5SM -RA OVC010
     FM231800 05020G30KT 2SM +RA OVC007
     FM240200 05015G25KT 3SM -RA OVC003
     FM240900 03015G25KT 3SM +RA OVC003
      AMD LTD TO CLD VIS AND WIND=

USA.gov is the U.S. government's official web portal to all federal, state and local government web resources and services.